lundi 24 novembre 2014

Suivez nous sur

Facebook

Constructions amateurs

La construction amateur d'aéronefs existe depuis longtemps à Béziers, avec par exemple en vol un Bilouis (avion de voltige), un MCR (avion à construire en kit), et un Jodel D18. Elle s'est structuré récemment avec la création fin 2011 d'un club RSA Béziers.
Depuis nous avons eu la mise en vol de 2 avions Gaz'aile 2, avions à moteur diesel, et tout récemment d'un Jodel D112 motorisé avec le moteur 6 cylindres Jabiru 3300 de 120 cv. Le Jodel D18 a changé de propriétaire, mais il est resté dans l'association, et un BB Jodel vient de nous rejoindre.
Le parc Biterrois est donc actuellement de 6 machines. Il y en a une autre en construction qui avance à grands pas, un troisième Gaz'aile 2.

Plus d'infos dans la partie "Les activités / Constructions amateurs".

METAR
LFMU 241130Z AUTO 06010KT 9999 BKN016 BKN022 BKN027 18/14 Q1020 =
TAF
TAF LFMU 241100Z 2412/2512 05010KT 9999 BKN014 BKN036 BECMG 2412/2414 SHRA BKN030 BKN060TCU BECMG 2423/2502 4000 BR TSRA BKN008 BKN030CB PROB30 TEMPO 2504/2510 2000 BR +TSRA BKN005 BKN030CB =